Regional Weather Roundup
Issued by NWS Northern Indiana

Home | Current Version | Previous Version | Graphics & Text | Print | Product List | Glossary On
Versions: 1 2 3 4 5 6 7 8 9 10 11 12 13 14 15 16 17 18 19 20 21 22 23 24 25 26 27 28 29 30 31 32 33 34 35 36 37 38 39 40 41 42 43 44 45 46 47 48 49 50
000
ASUS43 KIWX 020500
RWRIWX

KIWX WEATHER ROUNDUP
NATIONAL WEATHER SERVICE NORTHERN INDIANA
100 AM EDT SAT AUG 02 2014

NOTE: "FAIR" INDICATES FEW OR NO CLOUDS BELOW 12,000 FEET WITH NO
SIGNIFICANT WEATHER AND/OR OBSTRUCTIONS TO VISIBILITY.

* THESE STATIONS ARE NOT UNDER NWS QUALITY CONTROL. THEY ALSO MAY NOT
  REPORT WEATHER SUCH AS PRECIPITATION OR FOG.

INZ001>027-020600-
NORTHERN INDIANA

CITY           SKY/WX    TMP DP  RH WIND       PRES   REMARKS
VALPARAISO     MOCLDY    59  57  93 CALM      30.12F
KNOX*            N/A     58  56  94 CALM      30.12S VSB 1/4
SOUTH BEND     PTCLDY    63  57  81 CALM      30.12S
GOSHEN         CLEAR     61  59  93 CALM      30.11S FOG
MONTICELLO*    MOCLDY    64  62  94 NW3       30.12R
WARSAW*        CLEAR     59  57  94 W3        30.12R
ANGOLA*        MOCLDY    61  50  67 CALM      30.11S VSB 1/4
FORT WAYNE     MOCLDY    68  58  70 E21       30.13R THUNDER

$$
INZ028>050-020600-
CENTRAL INDIANA

CITY           SKY/WX    TMP DP  RH WIND       PRES   REMARKS
LAFAYETTE      CLOUDY    63  62  97 W5        30.12R
KOKOMO*        CLOUDY    66  61  82 N6        30.11S
MUNCIE*        CLOUDY    65  61  87 CALM      30.11R
INDIANAPOLIS   CLOUDY    66  61  84 CALM      30.10R

$$
MIZ043>046-050>051-056>058-064>065-071>073-077>080-020600-
SOUTHWEST LOWER MICHIGAN

CITY           SKY/WX    TMP DP  RH WIND       PRES   REMARKS
BATTLE CREEK   PTCLDY    64  58  80 NE3       30.13R
BENTON HARBOR  MOCLDY    59  58  96 E3        30.11S FOG
COLDWATER*     PTCLDY    63  62  96 CALM      30.11S FOG
HILLSDALE*     PTCLDY    59  58  99 CALM      30.12R
HOLLAND        PTCLDY    62  58  86 CALM      30.12S
GRAND RAPIDS   CLEAR     62  58  86 S3        30.12R
KALAMAZOO      PTCLDY    63  59  87 CALM      30.12R
STURGIS*       CLEAR     59  57  94 CALM      30.11S
THREE RIVERS*  FAIR      62  61  97 CALM      30.12S

$$
OHZ001>008-015>018-024>025-020600-
NORTHWEST OHIO

CITY           SKY/WX    TMP DP  RH WIND       PRES   REMARKS
DEFIANCE       CLEAR     63  58  83 E3        30.10F
FINDLAY        MOCLDY    71  61  70 SE5       30.09S
TOLEDO EXPRESS PTCLDY    66  60  81 CALM      30.09F
TOLEDO METCALF CLEAR     67  61  81 CALM      30.10S
LIMA           MOCLDY    69  63  81 CALM      30.10S

$$
&&


USA.gov is the U.S. government's official web portal to all federal, state and local government web resources and services.